#datetime,building,power
2022-07-24T00:00:00,rvs,28.14
2022-07-24T00:01:00,rvs,28.92
2022-07-24T00:02:00,rvs,31.77
2022-07-24T00:03:00,rvs,34.73
2022-07-24T00:04:00,rvs,33.01
2022-07-24T00:05:00,rvs,34.52
2022-07-24T00:06:00,rvs,36.35
2022-07-24T00:07:00,rvs,35.61
2022-07-24T00:08:00,rvs,35.19
2022-07-24T00:09:00,rvs,35.98
2022-07-24T00:10:00,rvs,35.78
2022-07-24T00:11:00,rvs,34.48
2022-07-24T00:12:00,rvs,31.13
2022-07-24T00:13:00,rvs,28.32
2022-07-24T00:14:00,rvs,26.27
2022-07-24T00:15:00,rvs,26.20
2022-07-24T00:16:00,rvs,31.80
2022-07-24T00:17:00,rvs,29.04
2022-07-24T00:18:00,rvs,29.17
2022-07-24T00:19:00,rvs,20.47
2022-07-24T00:20:00,rvs,16.53
2022-07-24T00:21:00,rvs,16.56
2022-07-24T00:22:00,rvs,16.95
2022-07-24T00:23:00,rvs,17.26
2022-07-24T00:24:00,rvs,17.16
2022-07-24T00:25:00,rvs,16.87
2022-07-24T00:26:00,rvs,16.67
2022-07-24T00:27:00,rvs,16.81
2022-07-24T00:28:00,rvs,16.70
2022-07-24T00:29:00,rvs,18.05
2022-07-24T00:30:00,rvs,18.87
2022-07-24T00:31:00,rvs,36.06
2022-07-24T00:32:00,rvs,20.59
2022-07-24T00:33:00,rvs,20.77
2022-07-24T00:34:00,rvs,18.13
2022-07-24T00:35:00,rvs,18.09
2022-07-24T00:36:00,rvs,20.48
2022-07-24T00:37:00,rvs,23.69
2022-07-24T00:38:00,rvs,23.78
2022-07-24T00:39:00,rvs,20.58
2022-07-24T00:40:00,rvs,23.67
2022-07-24T00:41:00,rvs,24.44
2022-07-24T00:42:00,rvs,23.96
2022-07-24T00:43:00,rvs,24.23
2022-07-24T00:44:00,rvs,25.60
2022-07-24T00:45:00,rvs,28.20
2022-07-24T00:46:00,rvs,24.66
2022-07-24T00:47:00,rvs,25.13
2022-07-24T00:48:00,rvs,28.58
2022-07-24T00:49:00,rvs,25.17
2022-07-24T00:50:00,rvs,27.58
2022-07-24T00:51:00,rvs,27.22
2022-07-24T00:52:00,rvs,26.97
2022-07-24T00:53:00,rvs,26.78
2022-07-24T00:54:00,rvs,24.80
2022-07-24T00:55:00,rvs,21.33
2022-07-24T00:56:00,rvs,21.56
2022-07-24T00:57:00,rvs,24.90
2022-07-24T00:58:00,rvs,26.57
2022-07-24T00:59:00,rvs,22.81
2022-07-24T01:00:00,rvs,19.58
2022-07-24T01:01:00,rvs,19.52
2022-07-24T01:02:00,rvs,18.65
2022-07-24T01:03:00,rvs,18.43
2022-07-24T01:04:00,rvs,18.99
2022-07-24T01:05:00,rvs,20.42
2022-07-24T01:06:00,rvs,20.49
2022-07-24T01:07:00,rvs,17.55
2022-07-24T01:08:00,rvs,18.63
2022-07-24T01:09:00,rvs,21.87
2022-07-24T01:10:00,rvs,22.02
2022-07-24T01:11:00,rvs,22.80
2022-07-24T01:12:00,rvs,21.02
2022-07-24T01:13:00,rvs,20.60
2022-07-24T01:14:00,rvs,20.86
2022-07-24T01:15:00,rvs,23.03
2022-07-24T01:16:00,rvs,22.93
2022-07-24T01:17:00,rvs,23.26
2022-07-24T01:18:00,rvs,23.26
2022-07-24T01:19:00,rvs,37.16
2022-07-24T01:20:00,rvs,41.74
2022-07-24T01:21:00,rvs,44.16
2022-07-24T01:22:00,rvs,31.36
2022-07-24T01:23:00,rvs,27.48
2022-07-24T01:24:00,rvs,28.51
2022-07-24T01:25:00,rvs,28.26
2022-07-24T01:26:00,rvs,24.49
2022-07-24T01:27:00,rvs,24.57
2022-07-24T01:28:00,rvs,24.12
2022-07-24T01:29:00,rvs,24.48
2022-07-24T01:30:00,rvs,29.57
2022-07-24T01:31:00,rvs,29.42
2022-07-24T01:32:00,rvs,30.06
2022-07-24T01:33:00,rvs,34.55
2022-07-24T01:34:00,rvs,33.28
2022-07-24T01:35:00,rvs,30.87
2022-07-24T01:36:00,rvs,31.98
2022-07-24T01:37:00,rvs,32.65
2022-07-24T01:38:00,rvs,32.06
2022-07-24T01:39:00,rvs,31.36
2022-07-24T01:40:00,rvs,31.58
2022-07-24T01:41:00,rvs,30.52
2022-07-24T01:42:00,rvs,29.53
2022-07-24T01:43:00,rvs,29.39
2022-07-24T01:44:00,rvs,29.06
2022-07-24T01:45:00,rvs,25.06
2022-07-24T01:46:00,rvs,25.14
2022-07-24T01:47:00,rvs,24.28
2022-07-24T01:48:00,rvs,23.64
2022-07-24T01:49:00,rvs,20.72
2022-07-24T01:50:00,rvs,24.33
2022-07-24T01:51:00,rvs,24.18
2022-07-24T01:52:00,rvs,26.12
2022-07-24T01:53:00,rvs,28.14
2022-07-24T01:54:00,rvs,25.30
2022-07-24T01:55:00,rvs,24.65
2022-07-24T01:56:00,rvs,24.04
2022-07-24T01:57:00,rvs,23.72
2022-07-24T01:58:00,rvs,25.77
2022-07-24T01:59:00,rvs,27.14
2022-07-24T02:00:00,rvs,26.48
2022-07-24T02:01:00,rvs,26.66
2022-07-24T02:02:00,rvs,27.12
2022-07-24T02:03:00,rvs,28.53
2022-07-24T02:04:00,rvs,25.83
2022-07-24T02:05:00,rvs,25.54
2022-07-24T02:06:00,rvs,24.93
2022-07-24T02:07:00,rvs,24.81
2022-07-24T02:08:00,rvs,21.19
2022-07-24T02:09:00,rvs,21.05
2022-07-24T02:10:00,rvs,17.04
2022-07-24T02:11:00,rvs,17.46
2022-07-24T02:12:00,rvs,20.68
2022-07-24T02:13:00,rvs,15.85
2022-07-24T02:14:00,rvs,16.12
2022-07-24T02:15:00,rvs,16.48
2022-07-24T02:16:00,rvs,17.70
2022-07-24T02:17:00,rvs,18.26
2022-07-24T02:18:00,rvs,17.96
2022-07-24T02:19:00,rvs,17.97
2022-07-24T02:20:00,rvs,18.98
2022-07-24T02:21:00,rvs,19.13
2022-07-24T02:22:00,rvs,16.30
2022-07-24T02:23:00,rvs,20.11
2022-07-24T02:24:00,rvs,22.00
2022-07-24T02:25:00,rvs,22.07
2022-07-24T02:26:00,rvs,21.91
2022-07-24T02:27:00,rvs,19.66
2022-07-24T02:28:00,rvs,19.72
2022-07-24T02:29:00,rvs,19.46
2022-07-24T02:30:00,rvs,22.60
2022-07-24T02:31:00,rvs,20.69
2022-07-24T02:32:00,rvs,20.51
2022-07-24T02:33:00,rvs,18.80
2022-07-24T02:34:00,rvs,18.38
2022-07-24T02:35:00,rvs,18.70
2022-07-24T02:36:00,rvs,15.75
2022-07-24T02:37:00,rvs,15.95
2022-07-24T02:38:00,rvs,17.24
2022-07-24T02:39:00,rvs,17.60
2022-07-24T02:40:00,rvs,18.36
2022-07-24T02:41:00,rvs,19.47
2022-07-24T02:42:00,rvs,20.75
2022-07-24T02:43:00,rvs,20.35
2022-07-24T02:44:00,rvs,21.50
2022-07-24T02:45:00,rvs,22.37
2022-07-24T02:46:00,rvs,23.26
2022-07-24T02:47:00,rvs,19.62
2022-07-24T02:48:00,rvs,15.75
2022-07-24T02:49:00,rvs,15.82
2022-07-24T02:50:00,rvs,18.30
2022-07-24T02:51:00,rvs,17.71
2022-07-24T02:52:00,rvs,18.11
2022-07-24T02:53:00,rvs,19.42
2022-07-24T02:54:00,rvs,22.90
2022-07-24T02:55:00,rvs,23.48
2022-07-24T02:56:00,rvs,22.65
2022-07-24T02:57:00,rvs,23.65
2022-07-24T02:58:00,rvs,27.06
2022-07-24T02:59:00,rvs,27.64
2022-07-24T03:00:00,rvs,27.93
2022-07-24T03:01:00,rvs,27.55
2022-07-24T03:02:00,rvs,26.56
2022-07-24T03:03:00,rvs,27.37
2022-07-24T03:04:00,rvs,27.47
2022-07-24T03:05:00,rvs,24.47
2022-07-24T03:06:00,rvs,26.15
2022-07-24T03:07:00,rvs,25.87
2022-07-24T03:08:00,rvs,26.32
2022-07-24T03:09:00,rvs,22.06
2022-07-24T03:10:00,rvs,22.21
2022-07-24T03:11:00,rvs,21.74
2022-07-24T03:12:00,rvs,21.44
2022-07-24T03:13:00,rvs,22.44
2022-07-24T03:14:00,rvs,20.56
2022-07-24T03:15:00,rvs,21.95
2022-07-24T03:16:00,rvs,23.58
2022-07-24T03:17:00,rvs,23.95
2022-07-24T03:18:00,rvs,19.61
2022-07-24T03:19:00,rvs,20.11
2022-07-24T03:20:00,rvs,20.08
2022-07-24T03:21:00,rvs,20.01
2022-07-24T03:22:00,rvs,20.61
2022-07-24T03:23:00,rvs,26.32
2022-07-24T03:24:00,rvs,26.16
2022-07-24T03:25:00,rvs,26.37
2022-07-24T03:26:00,rvs,27.89
2022-07-24T03:27:00,rvs,29.20
2022-07-24T03:28:00,rvs,27.29
2022-07-24T03:29:00,rvs,26.04
2022-07-24T03:30:00,rvs,27.92
2022-07-24T03:31:00,rvs,29.89
2022-07-24T03:32:00,rvs,26.54
2022-07-24T03:33:00,rvs,26.69
2022-07-24T03:34:00,rvs,30.28
2022-07-24T03:35:00,rvs,26.85
2022-07-24T03:36:00,rvs,27.16
2022-07-24T03:37:00,rvs,22.71
2022-07-24T03:38:00,rvs,18.47
2022-07-24T03:39:00,rvs,18.38
2022-07-24T03:40:00,rvs,14.37
2022-07-24T03:41:00,rvs,14.72
2022-07-24T03:42:00,rvs,16.55
2022-07-24T03:43:00,rvs,16.45
2022-07-24T03:44:00,rvs,16.40
2022-07-24T03:45:00,rvs,16.21
2022-07-24T03:46:00,rvs,12.33
2022-07-24T03:47:00,rvs,12.20
2022-07-24T03:48:00,rvs,14.49
2022-07-24T03:49:00,rvs,15.16
2022-07-24T03:50:00,rvs,15.31
2022-07-24T03:51:00,rvs,15.53
2022-07-24T03:52:00,rvs,16.49
2022-07-24T03:53:00,rvs,16.27
2022-07-24T03:54:00,rvs,17.27
2022-07-24T03:55:00,rvs,19.73
2022-07-24T03:56:00,rvs,16.85
2022-07-24T03:57:00,rvs,18.75
2022-07-24T03:58:00,rvs,19.54
2022-07-24T03:59:00,rvs,19.65
2022-07-24T04:00:00,rvs,22.34
2022-07-24T04:01:00,rvs,23.90
2022-07-24T04:02:00,rvs,23.99
2022-07-24T04:03:00,rvs,24.14
2022-07-24T04:04:00,rvs,24.36
2022-07-24T04:05:00,rvs,23.98
2022-07-24T04:06:00,rvs,24.78
2022-07-24T04:07:00,rvs,20.22
2022-07-24T04:08:00,rvs,20.53
2022-07-24T04:09:00,rvs,22.21
2022-07-24T04:10:00,rvs,23.27
2022-07-24T04:11:00,rvs,21.66
2022-07-24T04:12:00,rvs,22.16
2022-07-24T04:13:00,rvs,23.83
2022-07-24T04:14:00,rvs,19.98
2022-07-24T04:15:00,rvs,19.94
2022-07-24T04:16:00,rvs,18.38
2022-07-24T04:17:00,rvs,18.71
2022-07-24T04:18:00,rvs,19.50
2022-07-24T04:19:00,rvs,25.58
2022-07-24T04:20:00,rvs,26.57
2022-07-24T04:21:00,rvs,27.49
2022-07-24T04:22:00,rvs,24.23
2022-07-24T04:23:00,rvs,20.22
2022-07-24T04:24:00,rvs,20.19
2022-07-24T04:25:00,rvs,19.06
2022-07-24T04:26:00,rvs,18.49
2022-07-24T04:27:00,rvs,16.87
2022-07-24T04:28:00,rvs,15.29
2022-07-24T04:29:00,rvs,15.32
2022-07-24T04:30:00,rvs,16.05
2022-07-24T04:31:00,rvs,17.46
2022-07-24T04:32:00,rvs,17.39
2022-07-24T04:33:00,rvs,17.46
2022-07-24T04:34:00,rvs,13.46
2022-07-24T04:35:00,rvs,13.41
2022-07-24T04:36:00,rvs,11.44
2022-07-24T04:37:00,rvs,11.36
2022-07-24T04:38:00,rvs,11.35
2022-07-24T04:39:00,rvs,11.35
2022-07-24T04:40:00,rvs,11.35
2022-07-24T04:41:00,rvs,11.31
2022-07-24T04:42:00,rvs,11.70
2022-07-24T04:43:00,rvs,11.35
2022-07-24T04:44:00,rvs,14.13
2022-07-24T04:45:00,rvs,17.35
2022-07-24T04:46:00,rvs,17.32
2022-07-24T04:47:00,rvs,20.69
2022-07-24T04:48:00,rvs,22.35
2022-07-24T04:49:00,rvs,23.79
2022-07-24T04:50:00,rvs,23.38
2022-07-24T04:51:00,rvs,24.82
2022-07-24T04:52:00,rvs,24.39
2022-07-24T04:53:00,rvs,25.07
2022-07-24T04:54:00,rvs,25.13
2022-07-24T04:55:00,rvs,25.55
2022-07-24T04:56:00,rvs,25.50
2022-07-24T04:57:00,rvs,25.16
2022-07-24T04:58:00,rvs,24.51
2022-07-24T04:59:00,rvs,22.40
2022-07-24T05:00:00,rvs,22.74
2022-07-24T05:01:00,rvs,22.33
2022-07-24T05:02:00,rvs,22.94
2022-07-24T05:03:00,rvs,24.54
2022-07-24T05:04:00,rvs,37.79
2022-07-24T05:05:00,rvs,38.34
2022-07-24T05:06:00,rvs,38.45
2022-07-24T05:07:00,rvs,38.55
2022-07-24T05:08:00,rvs,35.39
2022-07-24T05:09:00,rvs,35.23
2022-07-24T05:10:00,rvs,25.29
2022-07-24T05:11:00,rvs,25.00
2022-07-24T05:12:00,rvs,22.32
2022-07-24T05:13:00,rvs,18.76
2022-07-24T05:14:00,rvs,18.74
2022-07-24T05:15:00,rvs,18.54
2022-07-24T05:16:00,rvs,21.10
2022-07-24T05:17:00,rvs,20.78
2022-07-24T05:18:00,rvs,21.30
2022-07-24T05:19:00,rvs,17.71
2022-07-24T05:20:00,rvs,18.12
2022-07-24T05:21:00,rvs,18.16
2022-07-24T05:22:00,rvs,20.84
2022-07-24T05:23:00,rvs,20.75
2022-07-24T05:24:00,rvs,23.39
2022-07-24T05:25:00,rvs,24.97
2022-07-24T05:26:00,rvs,19.95
2022-07-24T05:27:00,rvs,15.93
2022-07-24T05:28:00,rvs,15.81
2022-07-24T05:29:00,rvs,15.70
2022-07-24T05:30:00,rvs,14.40
2022-07-24T05:31:00,rvs,14.19
2022-07-24T05:32:00,rvs,14.36
2022-07-24T05:33:00,rvs,14.12
2022-07-24T05:34:00,rvs,14.10
2022-07-24T05:35:00,rvs,11.96
2022-07-24T05:36:00,rvs,14.21
2022-07-24T05:37:00,rvs,15.06
2022-07-24T05:38:00,rvs,15.30
2022-07-24T05:39:00,rvs,18.67
2022-07-24T05:40:00,rvs,18.63
2022-07-24T05:41:00,rvs,18.47
2022-07-24T05:42:00,rvs,21.65
2022-07-24T05:43:00,rvs,22.63
2022-07-24T05:44:00,rvs,23.71
2022-07-24T05:45:00,rvs,26.15
2022-07-24T05:46:00,rvs,26.26
2022-07-24T05:47:00,rvs,27.50
2022-07-24T05:48:00,rvs,28.75
2022-07-24T05:49:00,rvs,31.52
2022-07-24T05:50:00,rvs,30.07
2022-07-24T05:51:00,rvs,30.78
2022-07-24T05:52:00,rvs,32.45
2022-07-24T05:53:00,rvs,31.73
2022-07-24T05:54:00,rvs,32.97
2022-07-24T05:55:00,rvs,30.15
2022-07-24T05:56:00,rvs,30.84
2022-07-24T05:57:00,rvs,27.98
2022-07-24T05:58:00,rvs,27.25
2022-07-24T05:59:00,rvs,26.46
2022-07-24T06:00:00,rvs,26.21
2022-07-24T06:01:00,rvs,19.60
2022-07-24T06:02:00,rvs,17.52
2022-07-24T06:03:00,rvs,17.69
2022-07-24T06:04:00,rvs,18.34
2022-07-24T06:05:00,rvs,18.41
2022-07-24T06:06:00,rvs,18.06
2022-07-24T06:07:00,rvs,18.00
2022-07-24T06:08:00,rvs,18.76
2022-07-24T06:09:00,rvs,21.49
2022-07-24T06:10:00,rvs,21.66
2022-07-24T06:11:00,rvs,26.12
2022-07-24T06:12:00,rvs,28.11
2022-07-24T06:13:00,rvs,25.18
2022-07-24T06:14:00,rvs,26.08
2022-07-24T06:15:00,rvs,24.87
2022-07-24T06:16:00,rvs,23.97
2022-07-24T06:17:00,rvs,22.91
2022-07-24T06:18:00,rvs,22.66
2022-07-24T06:19:00,rvs,22.96
2022-07-24T06:20:00,rvs,24.16
2022-07-24T06:21:00,rvs,24.39
2022-07-24T06:22:00,rvs,26.11
2022-07-24T06:23:00,rvs,26.56
2022-07-24T06:24:00,rvs,26.85
2022-07-24T06:25:00,rvs,27.49
2022-07-24T06:26:00,rvs,23.15
2022-07-24T06:27:00,rvs,23.13
2022-07-24T06:28:00,rvs,15.62
2022-07-24T06:29:00,rvs,17.41
2022-07-24T06:30:00,rvs,17.71
2022-07-24T06:31:00,rvs,18.07
2022-07-24T06:32:00,rvs,18.55
2022-07-24T06:33:00,rvs,18.89
2022-07-24T06:34:00,rvs,16.30
2022-07-24T06:35:00,rvs,15.79
2022-07-24T06:36:00,rvs,14.65
2022-07-24T06:37:00,rvs,17.33
2022-07-24T06:38:00,rvs,20.57
2022-07-24T06:39:00,rvs,18.85
2022-07-24T06:40:00,rvs,20.13
2022-07-24T06:41:00,rvs,21.92
2022-07-24T06:42:00,rvs,18.03
2022-07-24T06:43:00,rvs,18.42
2022-07-24T06:44:00,rvs,18.72
2022-07-24T06:45:00,rvs,19.35
2022-07-24T06:46:00,rvs,19.10
2022-07-24T06:47:00,rvs,19.22
2022-07-24T06:48:00,rvs,20.12
2022-07-24T06:49:00,rvs,18.64
2022-07-24T06:50:00,rvs,18.64
2022-07-24T06:51:00,rvs,18.64
2022-07-24T06:52:00,rvs,21.65
2022-07-24T06:53:00,rvs,17.97
2022-07-24T06:54:00,rvs,18.30
2022-07-24T06:55:00,rvs,17.77
2022-07-24T06:56:00,rvs,18.37
2022-07-24T06:57:00,rvs,18.91
2022-07-24T06:58:00,rvs,13.93
2022-07-24T06:59:00,rvs,13.37
2022-07-24T07:00:00,rvs,14.96
2022-07-24T07:01:00,rvs,17.72
2022-07-24T07:02:00,rvs,19.20
2022-07-24T07:03:00,rvs,19.41
2022-07-24T07:04:00,rvs,21.03
2022-07-24T07:05:00,rvs,23.02
2022-07-24T07:06:00,rvs,20.42
2022-07-24T07:07:00,rvs,20.29
2022-07-24T07:08:00,rvs,22.87
2022-07-24T07:09:00,rvs,28.44
2022-07-24T07:10:00,rvs,28.79
2022-07-24T07:11:00,rvs,25.09
2022-07-24T07:12:00,rvs,25.44
2022-07-24T07:13:00,rvs,25.05
2022-07-24T07:14:00,rvs,26.69
2022-07-24T07:15:00,rvs,24.86
2022-07-24T07:16:00,rvs,24.87
2022-07-24T07:17:00,rvs,25.77
2022-07-24T07:18:00,rvs,21.91
2022-07-24T07:19:00,rvs,23.35
2022-07-24T07:20:00,rvs,25.47
2022-07-24T07:21:00,rvs,25.74
2022-07-24T07:22:00,rvs,26.54
2022-07-24T07:23:00,rvs,25.64
2022-07-24T07:24:00,rvs,26.16
2022-07-24T07:25:00,rvs,21.19
2022-07-24T07:26:00,rvs,20.33
2022-07-24T07:27:00,rvs,21.15
2022-07-24T07:28:00,rvs,22.30
2022-07-24T07:29:00,rvs,22.72
2022-07-24T07:30:00,rvs,19.55
2022-07-24T07:31:00,rvs,19.33
2022-07-24T07:32:00,rvs,19.61
2022-07-24T07:33:00,rvs,14.81
2022-07-24T07:34:00,rvs,14.91
2022-07-24T07:35:00,rvs,14.91
2022-07-24T07:36:00,rvs,14.42
2022-07-24T07:37:00,rvs,13.99
2022-07-24T07:38:00,rvs,13.97
2022-07-24T07:39:00,rvs,14.11
2022-07-24T07:40:00,rvs,16.94
2022-07-24T07:41:00,rvs,17.42
2022-07-24T07:42:00,rvs,19.95
2022-07-24T07:43:00,rvs,24.34
2022-07-24T07:44:00,rvs,26.84
2022-07-24T07:45:00,rvs,26.53
2022-07-24T07:46:00,rvs,22.03
2022-07-24T07:47:00,rvs,24.43
2022-07-24T07:48:00,rvs,24.05
2022-07-24T07:49:00,rvs,23.64
2022-07-24T07:50:00,rvs,24.08
2022-07-24T07:51:00,rvs,24.02
2022-07-24T07:52:00,rvs,25.01
2022-07-24T07:53:00,rvs,28.56
2022-07-24T07:54:00,rvs,27.92
2022-07-24T07:55:00,rvs,30.23
2022-07-24T07:56:00,rvs,30.93
2022-07-24T07:57:00,rvs,35.28
2022-07-24T07:58:00,rvs,36.94
2022-07-24T07:59:00,rvs,36.82
2022-07-24T08:00:00,rvs,32.35
2022-07-24T08:01:00,rvs,33.00
2022-07-24T08:02:00,rvs,31.56
2022-07-24T08:03:00,rvs,31.83
2022-07-24T08:04:00,rvs,30.10
2022-07-24T08:05:00,rvs,30.17
2022-07-24T08:06:00,rvs,30.07
2022-07-24T08:07:00,rvs,27.05
2022-07-24T08:08:00,rvs,25.08
2022-07-24T08:09:00,rvs,25.57
2022-07-24T08:10:00,rvs,26.31
2022-07-24T08:11:00,rvs,27.07
2022-07-24T08:12:00,rvs,24.64
2022-07-24T08:13:00,rvs,20.12
2022-07-24T08:14:00,rvs,19.89
2022-07-24T08:15:00,rvs,19.88
2022-07-24T08:16:00,rvs,23.40
2022-07-24T08:17:00,rvs,19.96
2022-07-24T08:18:00,rvs,19.60
2022-07-24T08:19:00,rvs,19.44
2022-07-24T08:20:00,rvs,15.69
2022-07-24T08:21:00,rvs,15.27
2022-07-24T08:22:00,rvs,15.72
2022-07-24T08:23:00,rvs,15.35
2022-07-24T08:24:00,rvs,18.08
2022-07-24T08:25:00,rvs,18.35
2022-07-24T08:26:00,rvs,18.87
2022-07-24T08:27:00,rvs,32.64
2022-07-24T08:28:00,rvs,31.32
2022-07-24T08:29:00,rvs,30.53
2022-07-24T08:30:00,rvs,30.87
2022-07-24T08:31:00,rvs,23.01
2022-07-24T08:32:00,rvs,24.88
2022-07-24T08:33:00,rvs,23.30
2022-07-24T08:34:00,rvs,22.56
2022-07-24T08:35:00,rvs,21.05
2022-07-24T08:36:00,rvs,25.20
2022-07-24T08:37:00,rvs,24.88
2022-07-24T08:38:00,rvs,25.87
2022-07-24T08:39:00,rvs,26.84
2022-07-24T08:40:00,rvs,25.81
2022-07-24T08:41:00,rvs,25.64
2022-07-24T08:42:00,rvs,33.60
2022-07-24T08:43:00,rvs,34.14
2022-07-24T08:44:00,rvs,34.44
2022-07-24T08:45:00,rvs,33.20
2022-07-24T08:46:00,rvs,32.98
2022-07-24T08:47:00,rvs,32.92
2022-07-24T08:48:00,rvs,34.79
2022-07-24T08:49:00,rvs,34.50
2022-07-24T08:50:00,rvs,34.01
2022-07-24T08:51:00,rvs,34.74
2022-07-24T08:52:00,rvs,33.20
2022-07-24T08:53:00,rvs,32.96
2022-07-24T08:54:00,rvs,33.27
2022-07-24T08:55:00,rvs,33.54
2022-07-24T08:56:00,rvs,30.44
2022-07-24T08:57:00,rvs,34.78
2022-07-24T08:58:00,rvs,36.20
2022-07-24T08:59:00,rvs,33.06
2022-07-24T09:00:00,rvs,29.53
2022-07-24T09:01:00,rvs,28.00
2022-07-24T09:02:00,rvs,33.40
2022-07-24T09:03:00,rvs,26.90
2022-07-24T09:04:00,rvs,19.78
2022-07-24T09:05:00,rvs,19.95
2022-07-24T09:06:00,rvs,25.38
2022-07-24T09:07:00,rvs,25.46
2022-07-24T09:08:00,rvs,20.84
2022-07-24T09:09:00,rvs,19.14
2022-07-24T09:10:00,rvs,25.17
2022-07-24T09:11:00,rvs,28.15
2022-07-24T09:12:00,rvs,29.22
2022-07-24T09:13:00,rvs,24.98
2022-07-24T09:14:00,rvs,31.23
2022-07-24T09:15:00,rvs,32.53
2022-07-24T09:16:00,rvs,28.80
2022-07-24T09:17:00,rvs,28.76
2022-07-24T09:18:00,rvs,35.74
2022-07-24T09:19:00,rvs,37.90
2022-07-24T09:20:00,rvs,30.33
2022-07-24T09:21:00,rvs,31.54
2022-07-24T09:22:00,rvs,35.77
2022-07-24T09:23:00,rvs,34.30
2022-07-24T09:24:00,rvs,29.63
2022-07-24T09:25:00,rvs,30.42
2022-07-24T09:26:00,rvs,30.44
2022-07-24T09:27:00,rvs,33.30
2022-07-24T09:28:00,rvs,28.82
2022-07-24T09:29:00,rvs,30.87
2022-07-24T09:30:00,rvs,35.57
2022-07-24T09:31:00,rvs,31.23
2022-07-24T09:32:00,rvs,28.33
2022-07-24T09:33:00,rvs,24.12
2022-07-24T09:34:00,rvs,24.10
2022-07-24T09:35:00,rvs,26.75
2022-07-24T09:36:00,rvs,27.29
2022-07-24T09:37:00,rvs,40.79
2022-07-24T09:38:00,rvs,20.46
2022-07-24T09:39:00,rvs,22.70
2022-07-24T09:40:00,rvs,22.68
2022-07-24T09:41:00,rvs,22.68
2022-07-24T09:42:00,rvs,26.80
2022-07-24T09:43:00,rvs,26.16
2022-07-24T09:44:00,rvs,26.27
2022-07-24T09:45:00,rvs,27.90
2022-07-24T09:46:00,rvs,27.40
2022-07-24T09:47:00,rvs,22.60
2022-07-24T09:48:00,rvs,22.55
2022-07-24T09:49:00,rvs,25.05
2022-07-24T09:50:00,rvs,29.68
2022-07-24T09:51:00,rvs,30.70
2022-07-24T09:52:00,rvs,31.81
2022-07-24T09:53:00,rvs,32.40
2022-07-24T09:54:00,rvs,34.06
2022-07-24T09:55:00,rvs,33.60
2022-07-24T09:56:00,rvs,30.08
2022-07-24T09:57:00,rvs,32.77
2022-07-24T09:58:00,rvs,32.77
2022-07-24T09:59:00,rvs,33.00
2022-07-24T10:00:00,rvs,34.48
2022-07-24T10:01:00,rvs,34.80
2022-07-24T10:02:00,rvs,34.91
2022-07-24T10:03:00,rvs,33.87
2022-07-24T10:04:00,rvs,32.50
2022-07-24T10:05:00,rvs,27.85
2022-07-24T10:06:00,rvs,28.03
2022-07-24T10:07:00,rvs,27.85
2022-07-24T10:08:00,rvs,30.60
2022-07-24T10:09:00,rvs,31.01
2022-07-24T10:10:00,rvs,30.59
2022-07-24T10:11:00,rvs,26.61
2022-07-24T10:12:00,rvs,26.62
2022-07-24T10:13:00,rvs,22.35
2022-07-24T10:14:00,rvs,22.81
2022-07-24T10:15:00,rvs,17.89
2022-07-24T10:16:00,rvs,18.16
2022-07-24T10:17:00,rvs,18.21
2022-07-24T10:18:00,rvs,18.12
2022-07-24T10:19:00,rvs,19.00
2022-07-24T10:20:00,rvs,22.14
2022-07-24T10:21:00,rvs,23.28
2022-07-24T10:22:00,rvs,21.75
2022-07-24T10:23:00,rvs,24.64
2022-07-24T10:24:00,rvs,23.71
2022-07-24T10:25:00,rvs,24.04
2022-07-24T10:26:00,rvs,23.48
2022-07-24T10:27:00,rvs,28.32
2022-07-24T10:28:00,rvs,27.56
2022-07-24T10:29:00,rvs,24.32
2022-07-24T10:30:00,rvs,27.22
2022-07-24T10:31:00,rvs,25.20
2022-07-24T10:32:00,rvs,24.59
2022-07-24T10:33:00,rvs,24.77
2022-07-24T10:34:00,rvs,25.46
2022-07-24T10:35:00,rvs,26.14
2022-07-24T10:36:00,rvs,25.38
2022-07-24T10:37:00,rvs,21.85
2022-07-24T10:38:00,rvs,22.84
2022-07-24T10:39:00,rvs,22.29
2022-07-24T10:40:00,rvs,28.26
2022-07-24T10:41:00,rvs,25.74
2022-07-24T10:42:00,rvs,24.45
2022-07-24T10:43:00,rvs,30.89
2022-07-24T10:44:00,rvs,32.88
2022-07-24T10:45:00,rvs,33.19
2022-07-24T10:46:00,rvs,30.03
2022-07-24T10:47:00,rvs,32.69
2022-07-24T10:48:00,rvs,32.49
2022-07-24T10:49:00,rvs,32.66
2022-07-24T10:50:00,rvs,35.35
2022-07-24T10:51:00,rvs,39.40
2022-07-24T10:52:00,rvs,39.74
2022-07-24T10:53:00,rvs,39.67
2022-07-24T10:54:00,rvs,38.64
2022-07-24T10:55:00,rvs,38.61
2022-07-24T10:56:00,rvs,38.79
2022-07-24T10:57:00,rvs,38.87
2022-07-24T10:58:00,rvs,31.47
2022-07-24T10:59:00,rvs,30.17
2022-07-24T11:00:00,rvs,30.59
2022-07-24T11:01:00,rvs,30.59
2022-07-24T11:02:00,rvs,41.80
2022-07-24T11:03:00,rvs,40.10
2022-07-24T11:04:00,rvs,46.94
2022-07-24T11:05:00,rvs,46.58
2022-07-24T11:06:00,rvs,47.44
2022-07-24T11:07:00,rvs,46.28
2022-07-24T11:08:00,rvs,31.69
2022-07-24T11:09:00,rvs,32.62
2022-07-24T11:10:00,rvs,28.91
2022-07-24T11:11:00,rvs,33.33
2022-07-24T11:12:00,rvs,33.23
2022-07-24T11:13:00,rvs,32.94
2022-07-24T11:14:00,rvs,37.74
2022-07-24T11:15:00,rvs,36.62
2022-07-24T11:16:00,rvs,35.01
2022-07-24T11:17:00,rvs,43.76
2022-07-24T11:18:00,rvs,38.94
2022-07-24T11:19:00,rvs,31.07
2022-07-24T11:20:00,rvs,35.87
2022-07-24T11:21:00,rvs,40.29
2022-07-24T11:22:00,rvs,35.69
2022-07-24T11:23:00,rvs,36.00
2022-07-24T11:24:00,rvs,39.00
2022-07-24T11:25:00,rvs,51.76
2022-07-24T11:26:00,rvs,39.30
2022-07-24T11:27:00,rvs,40.51
2022-07-24T11:28:00,rvs,32.16
2022-07-24T11:29:00,rvs,35.19
2022-07-24T11:30:00,rvs,43.54
2022-07-24T11:31:00,rvs,41.04
2022-07-24T11:32:00,rvs,38.82
2022-07-24T11:33:00,rvs,34.30
2022-07-24T11:34:00,rvs,30.61
2022-07-24T11:35:00,rvs,38.60
2022-07-24T11:36:00,rvs,41.41
2022-07-24T11:37:00,rvs,34.65
2022-07-24T11:38:00,rvs,39.35
2022-07-24T11:39:00,rvs,44.26
2022-07-24T11:40:00,rvs,42.76
2022-07-24T11:41:00,rvs,36.81
2022-07-24T11:42:00,rvs,38.26
2022-07-24T11:43:00,rvs,45.06
2022-07-24T11:44:00,rvs,45.44
2022-07-24T11:45:00,rvs,50.81
2022-07-24T11:46:00,rvs,53.93
2022-07-24T11:47:00,rvs,49.10
2022-07-24T11:48:00,rvs,56.45
2022-07-24T11:49:00,rvs,43.79
2022-07-24T11:50:00,rvs,46.89
2022-07-24T11:51:00,rvs,51.40
2022-07-24T11:52:00,rvs,54.30
2022-07-24T11:53:00,rvs,50.40
2022-07-24T11:54:00,rvs,52.01
2022-07-24T11:55:00,rvs,52.49
2022-07-24T11:56:00,rvs,57.22
2022-07-24T11:57:00,rvs,60.86
2022-07-24T11:58:00,rvs,59.90
2022-07-24T11:59:00,rvs,49.60
2022-07-24T12:00:00,rvs,49.24
2022-07-24T12:01:00,rvs,44.18
2022-07-24T12:02:00,rvs,45.73
2022-07-24T12:03:00,rvs,48.04
2022-07-24T12:04:00,rvs,51.22
2022-07-24T12:05:00,rvs,50.83
2022-07-24T12:06:00,rvs,44.87
2022-07-24T12:07:00,rvs,37.38
2022-07-24T12:08:00,rvs,38.31
2022-07-24T12:09:00,rvs,41.77
2022-07-24T12:10:00,rvs,49.75
2022-07-24T12:11:00,rvs,47.00
2022-07-24T12:12:00,rvs,47.71
2022-07-24T12:13:00,rvs,51.64
2022-07-24T12:14:00,rvs,46.98
2022-07-24T12:15:00,rvs,47.21
2022-07-24T12:16:00,rvs,46.63
2022-07-24T12:17:00,rvs,51.02
2022-07-24T12:18:00,rvs,48.90
2022-07-24T12:19:00,rvs,39.59
2022-07-24T12:20:00,rvs,43.48
2022-07-24T12:21:00,rvs,46.31
2022-07-24T12:22:00,rvs,42.88
2022-07-24T12:23:00,rvs,42.84
2022-07-24T12:24:00,rvs,47.27
2022-07-24T12:25:00,rvs,40.98
2022-07-24T12:26:00,rvs,40.33
2022-07-24T12:27:00,rvs,44.54
2022-07-24T12:28:00,rvs,40.37
2022-07-24T12:29:00,rvs,37.18
2022-07-24T12:30:00,rvs,39.54
2022-07-24T12:31:00,rvs,45.10
2022-07-24T12:32:00,rvs,45.73
2022-07-24T12:33:00,rvs,33.67
2022-07-24T12:34:00,rvs,29.35
2022-07-24T12:35:00,rvs,31.15
2022-07-24T12:36:00,rvs,39.85
2022-07-24T12:37:00,rvs,44.19
2022-07-24T12:38:00,rvs,40.41
2022-07-24T12:39:00,rvs,41.47
2022-07-24T12:40:00,rvs,37.70
2022-07-24T12:41:00,rvs,39.26
2022-07-24T12:42:00,rvs,57.94
2022-07-24T12:43:00,rvs,44.67
2022-07-24T12:44:00,rvs,35.26
2022-07-24T12:45:00,rvs,48.15
2022-07-24T12:46:00,rvs,44.74
2022-07-24T12:47:00,rvs,47.73
2022-07-24T12:48:00,rvs,46.52
2022-07-24T12:49:00,rvs,71.97
2022-07-24T12:50:00,rvs,49.08
2022-07-24T12:51:00,rvs,56.89
2022-07-24T12:52:00,rvs,53.96
2022-07-24T12:53:00,rvs,50.44
2022-07-24T12:54:00,rvs,73.23
2022-07-24T12:55:00,rvs,49.99
2022-07-24T12:56:00,rvs,57.61
2022-07-24T12:57:00,rvs,53.27
2022-07-24T12:58:00,rvs,44.48
2022-07-24T12:59:00,rvs,40.84
2022-07-24T13:00:00,rvs,36.78
2022-07-24T13:01:00,rvs,43.02
2022-07-24T13:02:00,rvs,43.82
2022-07-24T13:03:00,rvs,39.98
2022-07-24T13:04:00,rvs,46.44
2022-07-24T13:05:00,rvs,48.66
2022-07-24T13:06:00,rvs,44.28
2022-07-24T13:07:00,rvs,49.41
2022-07-24T13:08:00,rvs,46.44
2022-07-24T13:09:00,rvs,46.66
2022-07-24T13:10:00,rvs,50.29
2022-07-24T13:11:00,rvs,39.21
2022-07-24T13:12:00,rvs,40.87
2022-07-24T13:13:00,rvs,54.38
2022-07-24T13:14:00,rvs,56.27
2022-07-24T13:15:00,rvs,53.09
2022-07-24T13:16:00,rvs,55.57
2022-07-24T13:17:00,rvs,60.43
2022-07-24T13:18:00,rvs,60.50